BAW47C KLIT-KGPT

Flight info

Callsign BAW47C
Flight time 0h 49m
Altitude 37000
Route MICKE MHZ UCODI
Aircraft B744/H-SDE3FGHIM1M2RWXY/LB1

Departure

Time 2026-04-26 15:42
Airport Bill & Hillary Clinton National Airport/Adams Field (KLIT)

Arrival

Time 2026-04-26 16:31
Airport Gulfport Biloxi International Airport (KGPT)
Time Latitude Longitude Altitude Speed Heading
2026-04-26 15:15 34.73194 -92.24099 273 ft 0 kts 33°
2026-04-26 15:34 34.73201 -92.24094 272 ft 6 kts 34°
2026-04-26 15:34 34.73238 -92.24025 272 ft 11 kts 74°
2026-04-26 15:34 34.73201 -92.23968 272 ft 13 kts 177°
2026-04-26 15:35 34.73098 -92.23971 273 ft 15 kts 182°
2026-04-26 15:35 34.72986 -92.23975 273 ft 13 kts 181°
2026-04-26 15:35 34.72866 -92.23979 273 ft 21 kts 181°
2026-04-26 15:35 34.72728 -92.23983 273 ft 21 kts 181°
2026-04-26 15:36 34.72615 -92.23987 273 ft 16 kts 181°
2026-04-26 15:36 34.72511 -92.23990 272 ft 15 kts 181°
2026-04-26 15:36 34.72404 -92.23993 272 ft 12 kts 181°
2026-04-26 15:36 34.72351 -92.23994 272 ft 5 kts 181°
2026-04-26 15:37 34.72335 -92.23994 272 ft 0 kts 175°
2026-04-26 15:40 34.72326 -92.23993 272 ft 4 kts 170°
2026-04-26 15:40 34.72284 -92.23953 272 ft 12 kts 104°
2026-04-26 15:40 34.72279 -92.23882 271 ft 5 kts 67°
2026-04-26 15:41 34.72304 -92.23862 271 ft 0 kts
2026-04-26 15:41 34.72324 -92.23860 270 ft 16 kts
2026-04-26 15:41 34.72760 -92.23847 272 ft 105 kts
2026-04-26 15:41 34.73679 -92.23818 275 ft 153 kts
2026-04-26 15:42 34.74825 -92.23795 654 ft 176 kts
2026-04-26 15:42 34.76079 -92.23807 1423 ft 183 kts 359°
2026-04-26 15:42 34.77369 -92.23872 2052 ft 189 kts 358°
2026-04-26 15:42 34.78748 -92.23962 2516 ft 210 kts 357°
2026-04-26 15:43 34.80285 -92.23937 3122 ft 229 kts
2026-04-26 15:43 34.81826 -92.23381 3838 ft 232 kts 27°
2026-04-26 15:43 34.83625 -92.19994 5450 ft 244 kts 94°
2026-04-26 15:44 34.82999 -92.17963 6520 ft 260 kts 126°
2026-04-26 15:44 34.80180 -92.15131 8903 ft 266 kts 143°
2026-04-26 15:44 34.78734 -92.13683 10069 ft 273 kts 142°
2026-04-26 15:45 34.75579 -92.10637 11715 ft 309 kts 145°
2026-04-26 15:45 34.73806 -92.09037 12539 ft 323 kts 146°
2026-04-26 15:46 34.69984 -92.05614 13927 ft 359 kts 147°
2026-04-26 15:46 34.67938 -92.03754 14581 ft 369 kts 147°
2026-04-26 15:46 34.65864 -92.01867 15396 ft 374 kts 147°
2026-04-26 15:46 34.64454 -92.00592 15850 ft 384 kts 147°
2026-04-26 15:47 34.61582 -91.97932 16882 ft 393 kts 147°
2026-04-26 15:47 34.57178 -91.93854 18548 ft 407 kts 147°
2026-04-26 15:47 34.54886 -91.91804 19353 ft 408 kts 148°
2026-04-26 15:48 34.52584 -91.89745 20295 ft 409 kts 149°
2026-04-26 15:48 34.50273 -91.87674 21222 ft 418 kts 149°
2026-04-26 15:48 34.47897 -91.85624 21830 ft 422 kts 150°
2026-04-26 15:48 34.45447 -91.83617 22519 ft 421 kts 152°
2026-04-26 15:49 34.42954 -91.81582 23188 ft 432 kts 152°
2026-04-26 15:49 34.40503 -91.79554 23796 ft 431 kts 151°
2026-04-26 15:49 34.38009 -91.77444 24410 ft 439 kts 151°
2026-04-26 15:49 34.35495 -91.75275 25031 ft 447 kts 150°
2026-04-26 15:50 34.32956 -91.73053 25657 ft 458 kts 150°
2026-04-26 15:50 34.30383 -91.70784 26284 ft 462 kts 150°
2026-04-26 15:50 34.27774 -91.68477 26872 ft 468 kts 150°
2026-04-26 15:50 34.25126 -91.66134 27488 ft 477 kts 149°
2026-04-26 15:51 34.22443 -91.63763 28103 ft 481 kts 149°
2026-04-26 15:51 34.19711 -91.61352 28685 ft 484 kts 149°
2026-04-26 15:51 34.16939 -91.58908 29284 ft 496 kts 149°
2026-04-26 15:51 34.14121 -91.56429 29927 ft 504 kts 149°
2026-04-26 15:52 34.11302 -91.53954 30593 ft 510 kts 149°
2026-04-26 15:52 34.08425 -91.51430 31356 ft 516 kts 149°
2026-04-26 15:52 34.05539 -91.48896 32125 ft 512 kts 149°
2026-04-26 15:52 34.03625 -91.47217 32659 ft 509 kts 149°
2026-04-26 15:53 33.99733 -91.43807 33784 ft 521 kts 149°
2026-04-26 15:53 33.96830 -91.41263 34567 ft 510 kts 148°
2026-04-26 15:53 33.93925 -91.38715 35328 ft 508 kts 148°
2026-04-26 15:53 33.91025 -91.36173 36087 ft 507 kts 149°
2026-04-26 15:54 33.88125 -91.33634 36661 ft 516 kts 149°
2026-04-26 15:54 33.85246 -91.31119 36929 ft 520 kts 149°
2026-04-26 15:54 33.82314 -91.28563 36968 ft 524 kts 149°
2026-04-26 15:55 33.76473 -91.23475 36966 ft 514 kts 149°
2026-04-26 15:55 33.70677 -91.18437 36975 ft 517 kts 149°
2026-04-26 15:56 33.64891 -91.13418 36974 ft 515 kts 149°
2026-04-26 15:56 33.59090 -91.08393 36983 ft 517 kts 149°
2026-04-26 15:57 33.53317 -91.03400 36983 ft 516 kts 149°
2026-04-26 15:57 33.47512 -90.98379 36982 ft 513 kts 149°
2026-04-26 15:58 33.41722 -90.93388 36967 ft 512 kts 149°
2026-04-26 15:58 33.35919 -90.88395 36958 ft 513 kts 149°
2026-04-26 15:59 33.30164 -90.83447 36959 ft 515 kts 149°
2026-04-26 15:59 33.24363 -90.78461 36980 ft 512 kts 149°
2026-04-26 16:00 33.18616 -90.73532 36719 ft 511 kts 149°
2026-04-26 16:00 33.15743 -90.71076 36496 ft 510 kts 149°
2026-04-26 16:00 33.12881 -90.68627 36252 ft 508 kts 149°
2026-04-26 16:00 33.10029 -90.66190 36027 ft 506 kts 149°
2026-04-26 16:01 33.07232 -90.63799 35796 ft 505 kts 149°
2026-04-26 16:01 33.04401 -90.61384 35560 ft 498 kts 149°
2026-04-26 16:01 33.01582 -90.58981 35335 ft 496 kts 149°
2026-04-26 16:01 32.98776 -90.56589 35100 ft 496 kts 149°
2026-04-26 16:02 32.95980 -90.54211 34875 ft 491 kts 149°
2026-04-26 16:02 32.93194 -90.51844 34632 ft 492 kts 149°
2026-04-26 16:02 32.90418 -90.49485 34408 ft 485 kts 149°
2026-04-26 16:02 32.88584 -90.47929 34226 ft 486 kts 149°
2026-04-26 16:03 32.84934 -90.44836 33945 ft 486 kts 149°
2026-04-26 16:03 32.82188 -90.42511 33699 ft 484 kts 149°
2026-04-26 16:03 32.79453 -90.40196 33458 ft 483 kts 149°
2026-04-26 16:03 32.76729 -90.37891 33247 ft 481 kts 149°
2026-04-26 16:04 32.74014 -90.35596 33003 ft 478 kts 149°
2026-04-26 16:04 32.71316 -90.33316 32776 ft 477 kts 149°
2026-04-26 16:04 32.68624 -90.31041 32551 ft 475 kts 149°
2026-04-26 16:04 32.65947 -90.28779 32339 ft 472 kts 149°
2026-04-26 16:05 32.63285 -90.26529 32107 ft 467 kts 149°
2026-04-26 16:05 32.60636 -90.24293 31881 ft 468 kts 149°
2026-04-26 16:05 32.58034 -90.22099 31673 ft 465 kts 149°
2026-04-26 16:05 32.55411 -90.19890 31443 ft 459 kts 149°
2026-04-26 16:06 32.52802 -90.17695 31226 ft 459 kts 149°
2026-04-26 16:06 32.50207 -90.15514 31003 ft 455 kts 149°
2026-04-26 16:06 32.47626 -90.13346 30763 ft 456 kts 150°
2026-04-26 16:06 32.45058 -90.11194 30542 ft 452 kts 150°
2026-04-26 16:07 32.42377 -90.09302 30320 ft 448 kts 157°
2026-04-26 16:07 32.39585 -90.07628 30092 ft 450 kts 158°
2026-04-26 16:07 32.36810 -90.06026 29842 ft 451 kts 159°
2026-04-26 16:07 32.33994 -90.04425 29605 ft 447 kts 159°
2026-04-26 16:08 32.31183 -90.02835 29370 ft 447 kts 159°
2026-04-26 16:08 32.29324 -90.01785 29228 ft 447 kts 159°
2026-04-26 16:08 32.25598 -89.99675 28941 ft 444 kts 159°
2026-04-26 16:09 32.20047 -89.96523 28938 ft 441 kts 158°
2026-04-26 16:09 32.14528 -89.93384 28944 ft 444 kts 158°
2026-04-26 16:10 32.08971 -89.90225 28938 ft 442 kts 158°
2026-04-26 16:10 32.06164 -89.88634 28966 ft 457 kts 158°
2026-04-26 16:10 32.03222 -89.86967 28970 ft 480 kts 158°
2026-04-26 16:10 32.00138 -89.85224 28947 ft 499 kts 158°
2026-04-26 16:11 31.97012 -89.83428 28943 ft 495 kts 158°
2026-04-26 16:11 31.90869 -89.79919 28941 ft 485 kts 159°
2026-04-26 16:12 31.84790 -89.76489 28964 ft 483 kts 160°
2026-04-26 16:12 31.75510 -89.71338 28945 ft 497 kts 159°
2026-04-26 16:13 31.69247 -89.67821 28951 ft 498 kts 159°
2026-04-26 16:13 31.63027 -89.64311 28984 ft 498 kts 158°
2026-04-26 16:14 31.56796 -89.60803 28591 ft 494 kts 159°
2026-04-26 16:14 31.50650 -89.57364 27323 ft 486 kts 158°
2026-04-26 16:15 31.47624 -89.55674 26645 ft 480 kts 158°
2026-04-26 16:15 31.44559 -89.53968 25794 ft 489 kts 158°
2026-04-26 16:15 31.41445 -89.52232 24794 ft 497 kts 158°
2026-04-26 16:16 31.34971 -89.49889 21436 ft 486 kts 171°
2026-04-26 16:16 31.31688 -89.49088 20293 ft 481 kts 172°
2026-04-26 16:16 31.28453 -89.48322 19176 ft 469 kts 172°
2026-04-26 16:16 31.25245 -89.47563 18050 ft 471 kts 171°
2026-04-26 16:17 31.22076 -89.46795 16533 ft 465 kts 171°
2026-04-26 16:17 31.18955 -89.46014 15438 ft 456 kts 169°
2026-04-26 16:17 31.15889 -89.45228 14375 ft 445 kts 169°
2026-04-26 16:17 31.12863 -89.44446 13309 ft 437 kts 169°
2026-04-26 16:18 31.09927 -89.43683 12316 ft 431 kts 168°
2026-04-26 16:18 31.04130 -89.42173 10659 ft 410 kts 168°
2026-04-26 16:19 30.99177 -89.40816 10343 ft 325 kts 169°
2026-04-26 16:19 30.97114 -89.40232 10199 ft 290 kts 170°
2026-04-26 16:19 30.93960 -89.39434 9637 ft 272 kts 170°
2026-04-26 16:20 30.91499 -89.38834 9143 ft 267 kts 169°
2026-04-26 16:20 30.87902 -89.37971 8388 ft 263 kts 167°
2026-04-26 16:20 30.86152 -89.37531 8030 ft 260 kts 166°
2026-04-26 16:21 30.84399 -89.37058 7676 ft 259 kts 161°
2026-04-26 16:21 30.82728 -89.36251 7319 ft 255 kts 153°
2026-04-26 16:21 30.81198 -89.35364 7161 ft 243 kts 151°
2026-04-26 16:21 30.79742 -89.34490 7026 ft 228 kts 150°
2026-04-26 16:22 30.78351 -89.33643 6758 ft 226 kts 150°
2026-04-26 16:22 30.76972 -89.32820 6569 ft 223 kts 151°
2026-04-26 16:22 30.75529 -89.32158 6422 ft 223 kts 156°
2026-04-26 16:22 30.74064 -89.31551 6225 ft 222 kts 158°
2026-04-26 16:23 30.72599 -89.30958 6021 ft 223 kts 158°
2026-04-26 16:23 30.71168 -89.30279 5817 ft 221 kts 154°
2026-04-26 16:23 30.69795 -89.29522 5615 ft 221 kts 153°
2026-04-26 16:23 30.68419 -89.28733 5456 ft 221 kts 153°
2026-04-26 16:24 30.67081 -89.27960 5286 ft 209 kts 153°
2026-04-26 16:24 30.65826 -89.27237 5084 ft 196 kts 153°
2026-04-26 16:24 30.64649 -89.26563 4876 ft 184 kts 153°
2026-04-26 16:24 30.63513 -89.25917 4686 ft 181 kts 153°
2026-04-26 16:25 30.62393 -89.25284 4467 ft 179 kts 153°
2026-04-26 16:25 30.61280 -89.24659 4264 ft 179 kts 153°
2026-04-26 16:25 30.60169 -89.24039 4059 ft 177 kts 153°
2026-04-26 16:25 30.59073 -89.23432 3858 ft 175 kts 153°
2026-04-26 16:26 30.57963 -89.22819 3673 ft 177 kts 153°
2026-04-26 16:26 30.57229 -89.22415 3523 ft 176 kts 153°
2026-04-26 16:26 30.55745 -89.21599 3273 ft 176 kts 153°
2026-04-26 16:26 30.54637 -89.20992 3086 ft 176 kts 153°
2026-04-26 16:27 30.53533 -89.20388 2906 ft 175 kts 153°
2026-04-26 16:27 30.52425 -89.19782 2711 ft 177 kts 153°
2026-04-26 16:27 30.51323 -89.19173 2527 ft 175 kts 150°
2026-04-26 16:27 30.50337 -89.18378 2344 ft 174 kts 139°
2026-04-26 16:28 30.49448 -89.17436 2136 ft 170 kts 135°
2026-04-26 16:28 30.48649 -89.16511 1925 ft 158 kts 134°
2026-04-26 16:28 30.47908 -89.15646 1719 ft 148 kts 134°
2026-04-26 16:28 30.47198 -89.14823 1547 ft 142 kts 134°
2026-04-26 16:29 30.46510 -89.14027 1357 ft 140 kts 134°
2026-04-26 16:29 30.45830 -89.13236 1171 ft 139 kts 134°
2026-04-26 16:29 30.45151 -89.12451 997 ft 139 kts 134°
2026-04-26 16:29 30.44472 -89.11667 814 ft 138 kts 134°
2026-04-26 16:30 30.43796 -89.10881 662 ft 138 kts 134°
2026-04-26 16:30 30.43126 -89.10103 516 ft 137 kts 134°
2026-04-26 16:30 30.42454 -89.09334 351 ft 134 kts 134°
2026-04-26 16:30 30.41790 -89.08571 164 ft 135 kts 134°
2026-04-26 16:31 30.41118 -89.07801 41 ft 131 kts 134°
2026-04-26 16:31 30.40572 -89.07155 35 ft 87 kts 135°
2026-04-26 16:31 30.40281 -89.06824 37 ft 33 kts 135°
2026-04-26 16:31 30.40144 -89.06668 34 ft 29 kts 136°
2026-04-26 16:32 30.40049 -89.06549 34 ft 13 kts 90°
2026-04-26 16:32 30.40077 -89.06488 33 ft 11 kts 39°
2026-04-26 16:32 30.40192 -89.06477 34 ft 17 kts 322°
2026-04-26 16:32 30.40306 -89.06582 35 ft 24 kts 322°
2026-04-26 16:33 30.40429 -89.06708 34 ft 19 kts 315°
2026-04-26 16:33 30.40548 -89.06844 33 ft 23 kts 315°
2026-04-26 16:33 30.40686 -89.07004 36 ft 24 kts 314°
2026-04-26 16:33 30.40820 -89.07160 36 ft 29 kts 314°
2026-04-26 16:34 30.40963 -89.07324 36 ft 22 kts 315°
2026-04-26 16:34 30.41040 -89.07412 36 ft 9 kts 315°
2026-04-26 16:34 30.41078 -89.07422 36 ft 8 kts 29°
2026-04-26 16:34 30.41126 -89.07374 36 ft 10 kts 46°
2026-04-26 16:35 30.41195 -89.07353 36 ft 11 kts 317°
2026-04-26 16:35 30.41219 -89.07377 36 ft 5 kts 340°
2026-04-26 16:35 30.41256 -89.07365 36 ft 5 kts 50°
2026-04-26 16:35 30.41266 -89.07352 36 ft 0 kts 51°